Wind_Speed
8 9 10 12 13 14 14 15 17 19 20 19 19 19 19 19 19 19 19 18 18 19 20 20 20 20 20 20 21 20 20 19 19 19 19 19 20 22 22 22 22 23 23 23
8 10 11 12 12 12 13 14 15 18 19 18 19 19 18 19 19 20 20 20 20 20 20 20 20 20 20 20 20 20 19 19 19 20 20 21 21 22 23 22 22 22 22 22
9 11 11 11 12 12 13 13 15 17 17 18 18 18 19 19 19 19 19 20 20 21 20 20 20 21 20 20 21 21 19 19 20 20 20 21 21 21 22 22 22 23 23 23
10 11 11 11 12 13 13 14 15 16 16 16 17 16 18 19 18 18 18 18 19 19 19 20 20 20 21 21 21 20 20 19 19 20 21 21 21 21 22 23 22 23 23 23
11 11 11 12 13 14 14 14 14 16 16 15 16 16 15 17 17 18 18 17 18 19 19 19 20 21 21 22 21 20 20 20 20 21 21 22 21 22 22 23 22 23 23 24
10 11 11 12 12 13 13 13 13 14 14 15 15 16 15 16 17 17 18 18 18 19 19 20 21 21 21 20 20 20 21 21 21 21 21 22 23 23 23 23 24 24 24 25
9 10 11 12 12 12 13 12 12 12 13 15 16 17 16 17 17 17 17 17 18 19 19 20 20 20 20 20 20 21 21 21 21 21 22 23 23 24 24 24 24 24 25 26
10 10 11 11 12 12 12 12 12 13 13 13 14 16 15 16 17 17 17 18 18 18 18 19 19 19 19 20 20 20 21 21 21 21 22 22 23 23 23 23 24 23 24 24
10 10 11 12 12 12 13 13 13 14 13 13 14 14 16 16 17 17 17 17 16 17 17 17 17 18 19 20 20 20 20 21 21 21 21 21 22 22 22 22 22 22 22 23
11 11 11 11 12 12 12 12 12 11 12 12 13 14 15 16 16 15 16 16 17 18 17 16 16 18 19 20 20 20 20 21 20 20 21 20 20 20 21 22 21 21 21 22
11 12 11 11 11 11 12 12 12 12 12 11 12 13 15 16 17 16 17 17 17 16 15 15 16 17 18 19 20 20 20 19 20 20 20 19 18 18 19 20 20 20 20 20
12 12 11 11 11 11 11 11 12 12 12 13 13 15 15 16 16 16 16 17 17 15 16 16 17 18 18 18 18 18 18 18 18 18 18 17 17 17 18 19 19 19 19 19
13 12 10 10 11 12 12 12 12 12 12 13 14 16 16 17 17 16 15 15 15 15 16 16 16 17 17 17 17 17 17 17 17 16 16 16 17 17 17 18 18 18 18 19
14 13 12 12 13 13 13 13 13 13 12 14 15 15 16 16 16 17 16 16 16 15 15 15 16 16 16 16 16 16 16 15 15 15 15 16 16 17 17 17 17 17 18 18
14 13 13 13 13 14 15 15 15 14 13 14 14 15 16 16 16 16 16 15 15 15 14 14 15 15 16 16 15 16 15 14 14 14 15 15 16 16 17 17 16 16 17 17
14 13 13 12 13 13 14 14 14 14 14 14 15 15 15 16 16 16 15 14 13 13 14 15 15 16 16 15 15 14 14 13 14 14 15 14 14 15 15 16 15 15 14 14
15 14 13 12 13 13 14 14 14 15 15 15 15 15 15 15 14 14 14 14 13 13 13 14 14 14 14 14 13 13 13 13 13 13 13 13 14 14 13 13 14 13 12 12
15 14 14 13 13 14 14 14 13 13 14 14 14 13 13 13 12 12 13 13 12 12 12 12 12 12 12 12 13 13 12 12 12 12 12 12 12 12 11 11 11 11 11 12
15 14 14 13 13 14 14 13 13 13 12 12 13 12 12 12 12 11 11 11 11 11 10 10 10 10 10 10 11 10 10 10 10 10 10 10 11 11 11 10 10 10 11 12
14 14 14 13 13 13 13 12 12 11 11 11 12 12 11 10 10 10 10 10 10 9 9 9 9 9 9 9 9 9 8 8 8 8 8 8 9 10 10 10 10 10 10 11
14 14 14 13 14 13 12 11 11 11 11 11 11 11 10 10 10 10 9 9 9 9 8 8 8 8 8 8 7 7 7 7 7 7 7 7 8 8 8 9 9 10 10 11
14 14 13 13 14 14 12 11 10 10 10 11 11 10 10 9 9 9 8 8 8 8 8 8 8 8 7 7 6 6 6 6 6 6 7 7 7 7 8 8 8 9 10 11
14 13 13 13 13 13 11 11 10 10 10 10 9 9 9 9 9 8 8 7 7 6 6 6 6 6 7 6 6 5 5 5 4 5 5 5 6 6 6 7 8 9 10 11
13 13 13 13 12 12 11 11 11 10 9 9 8 8 8 8 8 7 6 6 6 5 5 5 5 5 5 4 4 3 3 3 3 3 3 4 4 4 6 7 8 9 10 10
13 12 12 12 12 11 10 10 9 9 8 7 7 7 7 7 6 6 6 5 5 5 5 4 4 3 4 4 3 3 3 3 3 3 3 3 4 5 6 7 8 9 9 10
13 13 12 12 11 10 9 8 8 7 7 6 6 7 6 5 5 5 5 4 4 4 3 3 3 3 3 3 3 4 3 2 2 1 2 3 3 4 6 7 8 9 10 10
Wind_Direction
236 229 225 225 223 225 232 235 236 237 241 243 243 244 247 250 253 256 259 261 263 264 267 270 273 277 280 282 282 281 279 279 280 281 282 283 285 284 284 285 286 285 284 284
234 233 229 228 228 229 233 237 241 242 244 245 246 246 250 252 255 259 262 263 265 266 270 270 273 276 278 280 281 281 280 279 280 281 281 282 284 285 284 285 286 285 283 283
236 236 234 232 231 233 235 238 240 240 245 248 250 250 251 253 258 259 260 262 266 268 267 268 273 277 278 279 281 281 279 279 280 281 283 285 285 285 286 286 286 286 285 286
237 233 233 235 236 237 240 240 242 244 247 251 248 248 253 255 257 261 263 265 268 271 270 271 274 277 278 279 282 280 280 279 282 285 286 288 287 285 285 286 287 287 286 286
241 239 235 237 240 238 237 241 244 247 250 252 249 251 252 258 262 265 267 266 267 269 269 269 272 274 275 278 280 279 280 281 285 288 288 288 288 288 286 286 288 288 286 288
243 243 241 240 240 239 241 247 251 254 257 259 257 259 260 264 268 268 269 269 268 267 267 268 270 272 273 276 278 278 282 286 287 289 288 290 290 288 287 287 288 289 289 290
249 248 244 242 241 243 246 250 257 261 262 264 264 263 262 262 265 269 274 273 270 267 267 268 271 272 273 274 276 279 283 286 287 288 290 291 292 290 290 290 290 291 292 293
246 247 245 244 245 246 248 247 251 257 261 266 268 267 267 269 270 271 275 274 271 269 270 270 272 272 273 273 275 280 282 285 286 289 292 293 291 290 291 292 292 295 296 297
243 247 247 247 248 252 251 248 247 255 262 267 268 272 274 275 275 276 277 277 276 279 275 272 273 273 274 275 277 281 283 284 286 290 294 296 295 295 296 297 298 301 301 299
243 246 248 250 253 250 247 252 254 257 266 273 277 279 278 278 279 277 280 280 277 281 278 274 274 275 275 276 278 281 284 286 287 290 294 296 297 301 303 304 305 305 303 302
245 248 250 249 250 250 249 252 255 261 266 273 280 278 279 282 280 280 280 281 282 281 278 274 275 278 280 280 278 279 282 285 287 289 293 296 301 304 307 308 308 308 307 307
246 250 254 255 252 250 252 256 257 262 269 272 275 278 282 284 282 280 281 281 282 281 277 274 274 277 280 279 276 276 279 284 287 289 292 297 303 306 308 310 311 313 312 312
245 250 260 266 263 261 257 258 259 262 270 276 281 281 284 283 282 280 280 281 280 279 277 276 274 275 275 273 272 274 278 282 285 288 292 298 303 306 310 312 313 314 314 315
246 249 252 257 256 259 263 262 262 265 273 280 283 282 283 281 282 281 283 282 281 279 277 276 274 274 275 273 271 271 275 278 284 291 295 299 302 306 309 312 314 316 315 314
249 253 253 254 258 260 263 263 263 266 270 277 284 285 282 280 280 280 281 279 279 277 276 276 274 273 275 274 272 272 274 281 288 294 298 301 303 305 307 312 315 317 317 318
250 254 253 257 262 265 264 261 263 269 274 279 283 283 282 279 281 282 280 278 280 281 279 276 273 272 270 269 271 272 277 285 292 296 297 298 301 304 307 310 316 321 322 324
247 252 255 258 264 270 271 265 268 271 277 282 286 285 282 280 284 282 280 278 279 284 284 281 279 272 266 267 273 274 276 280 288 294 295 298 300 305 309 313 320 325 329 331
246 249 255 262 266 270 269 272 273 277 281 284 284 280 281 282 285 286 283 280 282 284 287 286 283 275 273 275 277 278 276 279 283 289 294 300 304 307 313 319 323 326 330 334
246 249 255 262 267 271 273 275 281 287 285 286 287 281 281 285 286 285 284 284 285 282 284 285 280 274 271 273 277 275 272 275 280 289 299 304 306 308 314 318 319 324 328 332
246 250 252 258 265 269 272 277 281 286 288 287 287 286 285 287 286 286 288 286 282 280 282 283 279 277 273 272 275 270 271 278 283 292 300 305 309 315 317 319 322 325 327 330
244 248 251 256 263 266 270 276 281 284 286 286 287 288 287 287 285 288 291 292 287 282 280 281 279 276 273 272 275 272 282 283 286 292 300 307 312 317 320 320 323 325 327 332
243 247 251 255 260 266 269 273 276 278 280 283 284 283 284 288 289 290 293 294 292 289 282 281 279 276 273 272 276 274 277 284 290 292 298 306 310 315 320 323 327 329 332 336
242 245 248 252 257 261 266 269 272 276 279 281 277 279 284 288 288 288 292 294 295 292 290 284 277 272 270 269 271 275 270 279 288 296 305 315 318 322 328 331 333 334 334 334
242 244 248 252 253 256 258 263 270 275 278 278 272 273 284 290 290 285 287 289 294 292 294 290 282 275 267 263 264 270 264 261 276 299 316 325 328 330 336 340 342 343 342 340
238 243 247 249 249 251 256 264 269 267 270 276 275 273 281 290 293 291 287 289 293 290 283 283 278 263 258 251 245 248 265 260 277 295 308 317 323 328 337 342 343 345 347 348
237 243 244 244 242 245 249 257 264 262 263 272 271 273 280 290 297 292 285 290 293 290 284 273 260 253 253 246 250 254 263 265 273 298 321 332 340 339 341 343 343 341 343 348
Height
5828 5830 5832 5833 5835 5837 5839 5841 5842 5843 5845 5847 5848 5849 5850 5851 5852 5853 5854 5854 5854 5854 5854 5854 5854 5853 5852 5851 5850 5849 5848 5847 5846 5844 5843 5842 5840 5838 5836 5835 5833 5831 5829 5827
5828 5829 5830 5831 5832 5834 5836 5838 5840 5840 5841 5843 5845 5846 5847 5847 5848 5849 5849 5850 5850 5850 5850 5849 5849 5849 5848 5847 5846 5844 5843 5842 5841 5840 5838 5836 5835 5833 5831 5829 5827 5825 5823 5821
5826 5827 5827 5829 5830 5832 5834 5836 5837 5838 5839 5840 5842 5843 5844 5844 5844 5844 5845 5845 5845 5845 5845 5845 5844 5844 5843 5842 5841 5840 5839 5837 5836 5835 5833 5831 5829 5827 5825 5823 5821 5819 5817 5815
5823 5824 5825 5827 5828 5830 5832 5833 5834 5835 5836 5838 5838 5840 5840 5839 5840 5840 5840 5840 5840 5840 5840 5840 5840 5839 5838 5838 5836 5835 5834 5832 5831 5829 5827 5825 5823 5822 5820 5818 5816 5814 5811 5809
5822 5823 5823 5825 5826 5827 5829 5830 5831 5832 5833 5834 5834 5836 5837 5835 5835 5836 5836 5835 5836 5836 5836 5835 5835 5834 5834 5833 5831 5830 5829 5827 5826 5824 5822 5820 5818 5816 5814 5812 5810 5808 5805 5803
5820 5821 5821 5823 5824 5825 5826 5827 5828 5829 5830 5831 5832 5832 5833 5831 5831 5831 5831 5831 5831 5831 5831 5830 5829 5829 5828 5828 5826 5825 5824 5822 5820 5819 5817 5814 5812 5810 5808 5806 5804 5801 5799 5797
5818 5819 5819 5820 5821 5822 5824 5826 5827 5828 5828 5828 5828 5827 5829 5827 5826 5826 5826 5826 5825 5825 5825 5825 5824 5823 5823 5822 5821 5820 5819 5817 5815 5813 5811 5809 5806 5804 5802 5800 5798 5795 5793 5790
5817 5818 5817 5818 5819 5820 5821 5823 5825 5826 5826 5826 5824 5823 5825 5822 5822 5821 5821 5821 5820 5820 5820 5819 5818 5818 5817 5817 5816 5815 5814 5812 5810 5808 5806 5804 5801 5798 5796 5794 5792 5789 5787 5784
5814 5816 5815 5815 5816 5817 5818 5819 5821 5821 5821 5822 5821 5820 5819 5818 5817 5816 5816 5816 5815 5815 5814 5814 5813 5813 5812 5812 5811 5810 5809 5807 5806 5803 5801 5799 5796 5794 5791 5789 5786 5783 5781 5778
5811 5812 5813 5813 5813 5814 5815 5816 5817 5817 5817 5818 5818 5817 5817 5813 5813 5812 5811 5811 5810 5810 5809 5808 5808 5807 5807 5806 5805 5804 5804 5802 5801 5799 5796 5794 5792 5790 5787 5784 5781 5778 5776 5773
5808 5809 5811 5811 5811 5812 5812 5813 5813 5813 5814 5814 5814 5816 5811 5810 5808 5808 5807 5806 5805 5804 5804 5803 5803 5802 5801 5800 5800 5799 5798 5797 5796 5794 5792 5790 5788 5785 5783 5780 5777 5774 5771 5767
5805 5806 5807 5808 5808 5808 5809 5809 5810 5810 5810 5809 5810 5812 5807 5805 5804 5803 5802 5801 5800 5799 5799 5798 5798 5797 5796 5795 5794 5794 5793 5792 5791 5789 5788 5786 5783 5781 5779 5776 5772 5769 5766 5763
5802 5803 5804 5806 5807 5805 5805 5805 5805 5805 5805 5805 5806 5808 5802 5800 5799 5798 5797 5796 5795 5794 5794 5793 5792 5792 5791 5790 5789 5789 5788 5787 5786 5785 5783 5782 5780 5777 5775 5772 5769 5765 5762 5759
5798 5800 5802 5803 5803 5801 5801 5801 5801 5801 5801 5802 5801 5801 5798 5796 5794 5793 5792 5791 5790 5789 5788 5788 5787 5787 5786 5785 5785 5784 5783 5783 5782 5781 5779 5778 5776 5773 5771 5768 5765 5762 5759 5756
5795 5796 5797 5797 5797 5797 5797 5797 5797 5797 5797 5797 5797 5795 5793 5791 5790 5789 5788 5787 5785 5784 5783 5783 5782 5781 5781 5780 5780 5780 5779 5779 5778 5777 5775 5774 5772 5769 5767 5764 5761 5758 5755 5753
5791 5792 5793 5793 5793 5793 5793 5793 5793 5793 5793 5792 5791 5790 5788 5786 5785 5784 5783 5782 5781 5780 5779 5778 5777 5776 5776 5776 5775 5775 5775 5775 5774 5772 5771 5769 5768 5766 5763 5761 5758 5755 5752 5750
5787 5788 5789 5790 5790 5790 5790 5790 5789 5789 5788 5787 5786 5786 5783 5782 5781 5779 5778 5777 5776 5775 5774 5773 5772 5771 5771 5771 5771 5771 5771 5770 5770 5768 5767 5766 5764 5762 5760 5758 5756 5753 5750 5748
5783 5784 5785 5786 5787 5787 5789 5786 5785 5785 5784 5783 5782 5780 5779 5777 5776 5775 5774 5773 5772 5771 5770 5769 5768 5767 5768 5768 5767 5767 5767 5766 5766 5765 5764 5763 5761 5759 5758 5756 5754 5751 5749 5746
5779 5780 5781 5782 5782 5783 5783 5782 5781 5780 5780 5779 5778 5776 5775 5773 5772 5771 5770 5769 5768 5767 5766 5766 5765 5764 5764 5764 5764 5764 5763 5763 5763 5762 5761 5760 5758 5757 5755 5754 5752 5750 5747 5745
5775 5776 5778 5778 5779 5779 5780 5779 5777 5778 5776 5775 5774 5772 5771 5770 5769 5769 5767 5766 5765 5764 5763 5762 5762 5761 5761 5761 5761 5760 5760 5760 5760 5759 5758 5757 5756 5755 5753 5752 5750 5747 5745 5743
5771 5772 5773 5774 5774 5775 5776 5775 5774 5775 5774 5772 5770 5769 5768 5767 5766 5765 5764 5763 5762 5761 5760 5759 5759 5758 5758 5758 5758 5758 5758 5758 5757 5757 5756 5755 5754 5753 5751 5750 5748 5746 5743 5741
5767 5769 5770 5770 5771 5774 5771 5771 5771 5771 5769 5768 5767 5766 5765 5764 5763 5762 5761 5760 5759 5758 5757 5756 5756 5756 5756 5756 5756 5756 5755 5755 5755 5754 5754 5753 5752 5751 5750 5748 5746 5744 5742 5739
5764 5766 5766 5767 5769 5768 5767 5767 5767 5766 5765 5764 5764 5763 5762 5761 5760 5759 5758 5757 5756 5755 5754 5754 5753 5753 5753 5753 5754 5754 5753 5753 5753 5752 5752 5751 5750 5749 5748 5746 5744 5742 5740 5738
5760 5761 5762 5762 5763 5763 5763 5763 5763 5763 5762 5761 5761 5760 5759 5758 5757 5756 5756 5755 5754 5753 5752 5752 5751 5751 5751 5752 5752 5752 5752 5751 5751 5751 5750 5750 5749 5748 5746 5745 5743 5741 5739 5736
5756 5757 5757 5758 5759 5759 5760 5760 5760 5759 5759 5759 5758 5757 5757 5756 5755 5754 5754 5753 5752 5751 5751 5750 5750 5750 5750 5750 5750 5750 5750 5750 5750 5749 5749 5748 5747 5746 5745 5744 5742 5740 5738 5736
5752 5753 5754 5755 5756 5756 5757 5757 5757 5756 5756 5756 5756 5755 5755 5754 5753 5752 5752 5751 5751 5750 5749 5749 5749 5749 5749 5749 5749 5749 5749 5749 5749 5748 5748 5747 5746 5745 5744 5743 5741 5739 5737 5735